| time (UTC) | temp F | wind direction | speed MPH | gust MPH | rain 1hr in | rain 24hr in | rain mn in | humidity % | barometer mb |
| 20260902203555 | 88 | 198 | 0.0 | 4.0 | 0.00 | 1.15 | 1.15 | 63 | 1012.1 |
| 20260902203058 | 88 | 261 | 1.0 | 4.0 | 0.00 | 1.15 | 1.15 | 64 | 1012.3 |
| 20260902202556 | 87 | 0 | 2.0 | 4.0 | 0.00 | 1.15 | 1.15 | 64 | 1012.3 |
| 20260902202056 | 87 | 0 | 1.0 | 5.0 | 0.00 | 1.15 | 1.15 | 63 | 1012.3 |
| 20260902201634 | 87 | 246 | 1.0 | 5.0 | 0.00 | 1.15 | 1.15 | 64 | 1012.3 |
| 20260902201052 | 88 | 264 | 3.0 | 5.0 | 0.00 | 1.15 | 1.15 | 63 | 1012.2 |
| 20260902200555 | 88 | 198 | 0.0 | 3.0 | 0.00 | 1.15 | 1.15 | 64 | 1012.3 |
| 20260902200120 | 87 | 197 | 1.0 | 4.0 | 0.00 | 1.15 | 1.15 | 64 | 1012.4 |
| 20260902195556 | 87 | 169 | 1.0 | 4.0 | 0.00 | 1.15 | 1.15 | 65 | 1012.4 |
| 20260902195052 | 87 | 116 | 1.0 | 3.0 | 0.00 | 1.15 | 1.15 | 65 | 1012.3 |
| 20260902194602 | 86 | 0 | 0.0 | 5.0 | 0.00 | 1.15 | 1.15 | 64 | 1012.3 |
| 20260902194052 | 85 | 0 | 1.0 | 5.0 | 0.00 | 1.15 | 1.15 | 70 | 1012.4 |
| 20260902193559 | 85 | 32 | 2.0 | 5.0 | 0.00 | 1.15 | 1.15 | 64 | 1012.4 |
| 20260902193058 | 86 | 296 | 0.0 | 2.0 | 0.00 | 1.15 | 1.15 | 64 | 1012.3 |
| 20260902192555 | 86 | 292 | 1.0 | 2.0 | 0.00 | 1.15 | 1.15 | 66 | 1012.3 |
| 20260902192055 | 86 | 105 | 0.0 | 5.0 | 0.00 | 1.15 | 1.15 | 65 | 1012.4 |
| 20260902191606 | 85 | 0 | 0.0 | 5.0 | 0.00 | 1.15 | 1.15 | 65 | 1012.4 |
| 20260902191055 | 85 | 264 | 2.0 | 5.0 | 0.00 | 1.15 | 1.15 | 64 | 1012.5 |
| 20260902190555 | 85 | 176 | 0.0 | 3.0 | 0.00 | 1.15 | 1.15 | 65 | 1012.5 |
| 20260902190107 | 85 | 357 | 1.0 | 4.0 | 0.00 | 1.15 | 1.15 | 65 | 1012.6 |
| 20260902185557 | 86 | 0 | 1.0 | 5.0 | 0.00 | 1.15 | 1.15 | 66 | 1012.7 |
| 20260902185055 | 86 | 240 | 1.0 | 6.0 | 0.00 | 1.15 | 1.15 | 64 | 1012.8 |
| 20260902184601 | 86 | 163 | 1.0 | 6.0 | 0.00 | 1.15 | 1.15 | 67 | 1012.9 |
| 20260902184055 | 85 | 0 | 2.0 | 4.0 | 0.00 | 1.15 | 1.15 | 67 | 1012.9 |
| 20260902183553 | 85 | 250 | 1.0 | 4.0 | 0.00 | 1.15 | 1.15 | 65 | 1012.8 |
| 20260902183058 | 85 | 198 | 0.0 | 4.0 | 0.00 | 1.15 | 1.15 | 66 | 1012.8 |
| 20260902182556 | 85 | 0 | 1.0 | 5.0 | 0.00 | 1.15 | 1.15 | 64 | 1012.9 |
| 20260902182052 | 85 | 195 | 1.0 | 6.0 | 0.00 | 1.15 | 1.15 | 66 | 1012.9 |
| 20260902181612 | 84 | 248 | 0.0 | 6.0 | 0.00 | 1.15 | 1.15 | 67 | 1012.9 |
| 20260902181052 | 85 | 284 | 1.0 | 5.0 | 0.00 | 1.15 | 1.15 | 66 | 1013.1 |
| 20260902180555 | 84 | 179 | 2.0 | 4.0 | 0.00 | 1.15 | 1.15 | 67 | 1013.0 |
| 20260902180108 | 83 | 218 | 0.0 | 5.0 | 0.00 | 1.15 | 1.15 | 67 | 1012.9 |
| 20260902175556 | 83 | 260 | 1.0 | 6.0 | 0.00 | 1.15 | 1.15 | 67 | 1013.2 |
| 20260902175057 | 83 | 165 | 2.0 | 6.0 | 0.00 | 1.15 | 1.15 | 70 | 1013.3 |
| 20260902174608 | 83 | 165 | 2.0 | 6.0 | 0.00 | 1.15 | 1.15 | 70 | 1013.6 |
| 20260902174056 | 83 | 281 | 0.0 | 6.0 | 0.00 | 1.15 | 1.15 | 70 | 1013.6 |
| 20260902173552 | 83 | 256 | 3.0 | 6.0 | 0.00 | 1.15 | 1.15 | 70 | 1013.5 |
| 20260902173101 | 83 | 260 | 2.0 | 5.0 | 0.00 | 1.15 | 1.15 | 71 | 1013.7 |
| 20260902172555 | 83 | 117 | 2.0 | 6.0 | 0.00 | 1.15 | 1.15 | 71 | 1013.7 |
| 20260902172055 | 83 | 0 | 1.0 | 6.0 | 0.00 | 1.15 | 1.15 | 68 | 1013.7 |
| 20260902171611 | 83 | 64 | 2.0 | 6.0 | 0.00 | 1.15 | 1.15 | 70 | 1013.9 |
| 20260902171055 | 82 | 94 | 2.0 | 6.0 | 0.00 | 1.15 | 1.15 | 72 | 1013.9 |
| 20260902170555 | 81 | 143 | 3.0 | 6.0 | 0.00 | 1.15 | 1.15 | 72 | 1013.8 |
| 20260902170104 | 81 | 198 | 2.0 | 7.0 | 0.00 | 1.15 | 1.15 | 70 | 1013.7 |
| 20260902165555 | 81 | 265 | 3.0 | 7.0 | 0.00 | 1.15 | 1.15 | 72 | 1013.7 |
| 20260902165057 | 81 | 223 | 4.0 | 7.0 | 0.00 | 1.15 | 1.15 | 71 | 1013.7 |
| 20260902164614 | 81 | 136 | 2.0 | 8.0 | 0.00 | 1.15 | 1.15 | 71 | 1013.8 |
| 20260902164052 | 80 | 120 | 3.0 | 8.0 | 0.00 | 1.15 | 1.15 | 72 | 1013.9 |
| 20260902163552 | 80 | 164 | 3.0 | 7.0 | 0.00 | 1.15 | 1.15 | 72 | 1013.8 |
| 20260902163059 | 80 | 150 | 1.0 | 6.0 | 0.00 | 1.15 | 1.15 | 72 | 1013.8 |
| 20260902162554 | 80 | 190 | 1.0 | 6.0 | 0.00 | 1.15 | 1.15 | 74 | 1013.7 |
| 20260902162054 | 79 | 124 | 1.0 | 6.0 | 0.00 | 1.15 | 1.15 | 73 | 1013.7 |
| 20260902161607 | 79 | 140 | 2.0 | 6.0 | 0.00 | 1.15 | 1.15 | 73 | 1013.6 |
| 20260902161056 | 79 | 260 | 2.0 | 6.0 | 0.00 | 1.15 | 1.15 | 74 | 1013.7 |
| 20260902160559 | 79 | 198 | 2.0 | 6.0 | 0.00 | 1.15 | 1.15 | 74 | 1013.5 |
| 20260902160109 | 79 | 173 | 1.0 | 6.0 | 0.00 | 1.15 | 1.15 | 76 | 1013.4 |
| 20260902155552 | 78 | 181 | 2.0 | 6.0 | 0.00 | 1.15 | 1.15 | 74 | 1013.3 |
| 20260902155052 | 78 | 69 | 2.0 | 5.0 | 0.00 | 1.15 | 1.15 | 75 | 1013.4 |
| 20260902154614 | 77 | 335 | 2.0 | 7.0 | 0.00 | 1.15 | 1.15 | 75 | 1013.3 |
| 20260902154054 | 77 | 193 | 1.0 | 7.0 | 0.00 | 1.15 | 1.15 | 77 | 1013.4 |
| 20260902153553 | 77 | 248 | 1.0 | 6.0 | 0.00 | 1.15 | 1.15 | 76 | 1013.4 |
| 20260902153102 | 76 | 246 | 1.0 | 8.0 | 0.00 | 1.15 | 1.15 | 76 | 1013.4 |
| 20260902152558 | 76 | 201 | 3.0 | 8.0 | 0.00 | 1.15 | 1.15 | 77 | 1013.4 |
| 20260902152053 | 76 | 117 | 3.0 | 6.0 | 0.00 | 1.15 | 1.15 | 78 | 1013.4 |
| 20260902151621 | 76 | 148 | 2.0 | 5.0 | 0.00 | 1.15 | 1.15 | 80 | 1013.5 |
| 20260902151054 | 75 | 150 | 2.0 | 7.0 | 0.00 | 1.15 | 1.15 | 81 | 1013.3 |
| 20260902150553 | 74 | 142 | 1.0 | 7.0 | 0.00 | 1.15 | 1.15 | 81 | 1013.4 |
| 20260902145552 | 73 | 157 | 2.0 | 7.0 | 0.00 | 1.15 | 1.15 | 82 | 1013.4 |
| 20260902145053 | 73 | 204 | 3.0 | 7.0 | 0.00 | 1.15 | 1.15 | 84 | 1013.3 |
| 20260902144601 | 72 | 164 | 3.0 | 7.0 | 0.00 | 1.15 | 1.15 | 85 | 1013.4 |
| 20260902144053 | 72 | 188 | 3.0 | 9.0 | 0.00 | 1.15 | 1.15 | 84 | 1013.3 |
| 20260902143557 | 71 | 152 | 4.0 | 9.0 | 0.00 | 1.15 | 1.15 | 86 | 1013.4 |
| 20260902143057 | 71 | 164 | 5.0 | 10.0 | 0.00 | 1.15 | 1.15 | 85 | 1013.2 |
| 20260902142554 | 70 | 162 | 4.0 | 10.0 | 0.00 | 1.15 | 1.15 | 86 | 1013.5 |
| 20260902142054 | 70 | 134 | 5.0 | 9.0 | 0.00 | 1.15 | 1.15 | 86 | 1013.6 |
| 20260902141604 | 70 | 143 | 5.0 | 8.0 | 0.00 | 1.15 | 1.15 | 86 | 1013.7 |
| 20260902141053 | 69 | 181 | 5.0 | 8.0 | 0.00 | 1.15 | 1.15 | 87 | 1013.6 |
| 20260902140556 | 69 | 148 | 4.0 | 8.0 | 0.00 | 1.15 | 1.15 | 87 | 1013.6 |
| 20260902140107 | 68 | 108 | 3.0 | 7.0 | 0.00 | 1.15 | 1.15 | 88 | 1013.5 |
| 20260902135554 | 68 | 129 | 4.0 | 11.0 | 0.00 | 1.15 | 1.15 | 88 | 1013.6 |
| 20260902135053 | 68 | 144 | 6.0 | 11.0 | 0.00 | 1.15 | 1.15 | 87 | 1013.7 |
| 20260902134619 | 69 | 113 | 5.0 | 9.0 | 0.00 | 1.15 | 1.15 | 87 | 1013.4 |
| 20260902134054 | 68 | 91 | 5.0 | 9.0 | 0.00 | 1.15 | 1.15 | 87 | 1013.3 |
| 20260902133554 | 68 | 118 | 2.0 | 5.0 | 0.00 | 1.15 | 1.15 | 89 | 1013.6 |
| 20260902133108 | 68 | 143 | 2.0 | 5.0 | 0.00 | 1.15 | 1.15 | 90 | 1013.4 |
| 20260902132553 | 67 | 70 | 1.0 | 8.0 | 0.00 | 1.15 | 1.15 | 90 | 1013.6 |
| 20260902132053 | 66 | 135 | 1.0 | 8.0 | 0.00 | 1.15 | 1.15 | 90 | 1013.8 |
| 20260902131608 | 66 | 34 | 4.0 | 8.0 | 0.00 | 1.15 | 1.15 | 91 | 1013.7 |
| 20260902131053 | 66 | 125 | 3.0 | 6.0 | 0.00 | 1.15 | 1.15 | 91 | 1013.8 |
| 20260902130554 | 66 | 141 | 1.0 | 5.0 | 0.00 | 1.15 | 1.15 | 92 | 1013.9 |
| 20260902130114 | 65 | 152 | 2.0 | 4.0 | 0.00 | 1.15 | 1.15 | 92 | 1014.0 |
| 20260902125553 | 65 | 101 | 1.0 | 5.0 | 0.00 | 1.15 | 1.15 | 92 | 1013.8 |
| 20260902125053 | 65 | 140 | 1.0 | 5.0 | 0.00 | 1.15 | 1.15 | 94 | 1014.1 |
| 20260902124613 | 64 | 139 | 0.0 | 4.0 | 0.00 | 1.15 | 1.15 | 95 | 1014.1 |
| 20260902124053 | 63 | 150 | 1.0 | 7.0 | 0.00 | 1.15 | 1.15 | 95 | 1014.3 |
| 20260902123554 | 63 | 0 | 1.0 | 7.0 | 0.00 | 1.15 | 1.15 | 94 | 1014.3 |
| 20260902123111 | 63 | 86 | 5.0 | 7.0 | 0.00 | 1.15 | 1.15 | 95 | 1013.8 |
| 20260902122554 | 62 | 65 | 0.0 | 4.0 | 0.00 | 1.15 | 1.15 | 95 | 1013.6 |
| 20260902122054 | 62 | 252 | 0.0 | 7.0 | 0.00 | 1.15 | 1.15 | 95 | 1013.6 |
| 20260902121615 | 62 | 93 | 3.0 | 7.0 | 0.00 | 1.15 | 1.15 | 95 | 1013.2 |
| 20260902121053 | 62 | 65 | 0.0 | 6.0 | 0.00 | 1.15 | 1.15 | 95 | 1013.2 |
| 20260902120556 | 62 | 0 | 1.0 | 6.0 | 0.00 | 1.15 | 1.15 | 95 | 1013.2 |
| 20260902115553 | 62 | 129 | 0.0 | 3.0 | 0.00 | 1.15 | 1.15 | 95 | 1013.3 |
| 20260902115053 | 62 | 68 | 1.0 | 3.0 | 0.00 | 1.15 | 1.15 | 95 | 1013.4 |
| 20260902114557 | 62 | 78 | 1.0 | 4.0 | 0.00 | 1.15 | 1.15 | 95 | 1013.7 |
| 20260902114053 | 62 | 51 | 2.0 | 6.0 | 0.00 | 1.15 | 1.15 | 95 | 1013.5 |
| 20260902113556 | 62 | 64 | 3.0 | 6.0 | 0.00 | 1.15 | 1.15 | 95 | 1013.3 |
| 20260902113104 | 62 | 23 | 4.0 | 6.0 | 0.00 | 1.15 | 1.15 | 95 | 1013.3 |
| 20260902112554 | 62 | 30 | 2.0 | 5.0 | 0.00 | 1.15 | 1.15 | 95 | 1013.3 |
| 20260902112053 | 62 | 37 | 3.0 | 5.0 | 0.00 | 1.15 | 1.15 | 95 | 1013.6 |
| 20260902111603 | 62 | 11 | 2.0 | 3.0 | 0.00 | 1.15 | 1.15 | 95 | 1013.7 |
| 20260902111053 | 62 | 77 | 0.0 | 3.0 | 0.00 | 1.15 | 1.15 | 95 | 1013.8 |
| 20260902110553 | 62 | 78 | 1.0 | 3.0 | 0.00 | 1.15 | 1.15 | 94 | 1013.9 |
| 20260902110111 | 62 | 113 | 0.0 | 1.0 | 0.00 | 1.15 | 1.15 | 94 | 1014.1 |
| 20260902105553 | 62 | 115 | 0.0 | 2.0 | 0.00 | 1.15 | 1.15 | 94 | 1014.4 |
| 20260902105053 | 63 | 131 | 0.0 | 2.0 | 0.00 | 1.15 | 1.15 | 94 | 1014.3 |
| 20260902104558 | 63 | 153 | 1.0 | 2.0 | 0.00 | 1.15 | 1.15 | 94 | 1014.5 |
| 20260902104054 | 63 | 0 | 0.0 | 3.0 | 0.00 | 1.15 | 1.15 | 94 | 1014.7 |
| 20260902103552 | 63 | 0 | 0.0 | 4.0 | 0.00 | 1.15 | 1.15 | 94 | 1015.0 |
| 20260902103109 | 63 | 132 | 1.0 | 8.0 | 0.00 | 1.15 | 1.15 | 94 | 1015.5 |
| 20260902102553 | 63 | 222 | 1.0 | 9.0 | 0.00 | 1.15 | 1.15 | 94 | 1015.7 |
| 20260902102054 | 63 | 181 | 2.0 | 9.0 | 0.00 | 1.15 | 1.15 | 94 | 1015.9 |
| 20260902101604 | 63 | 212 | 4.0 | 9.0 | 0.00 | 1.15 | 1.15 | 95 | 1015.9 |
| 20260902101053 | 63 | 228 | 1.0 | 4.0 | 0.00 | 1.15 | 1.15 | 95 | 1015.5 |
| 20260902100553 | 63 | 54 | 1.0 | 5.0 | 0.00 | 1.15 | 1.15 | 95 | 1015.6 |
| 20260902100057 | 63 | 231 | 1.0 | 5.0 | 0.00 | 1.15 | 1.15 | 95 | 1014.7 |
| 20260902095552 | 63 | 283 | 1.0 | 5.0 | 0.00 | 1.15 | 1.15 | 95 | 1014.7 |
| 20260902095053 | 63 | 257 | 1.0 | 3.0 | 0.00 | 1.15 | 1.15 | 94 | 1014.6 |
| 20260902094604 | 63 | 153 | 0.0 | 3.0 | 0.00 | 1.15 | 1.15 | 94 | 1013.6 |
| 20260902094053 | 63 | 70 | 1.0 | 3.0 | 0.00 | 1.15 | 1.15 | 94 | 1013.6 |
| 20260902093553 | 63 | 142 | 1.0 | 3.0 | 0.00 | 1.15 | 1.15 | 94 | 1013.6 |
| 20260902093137 | 63 | 99 | 1.0 | 4.0 | 0.00 | 1.15 | 1.15 | 94 | 1013.6 |
| 20260902092553 | 62 | 154 | 1.0 | 4.0 | 0.00 | 1.15 | 1.15 | 94 | 1013.4 |
| 20260902092053 | 62 | 140 | 1.0 | 4.0 | 0.00 | 1.15 | 1.15 | 93 | 1013.1 |
| 20260902091626 | 63 | 148 | 1.0 | 3.0 | 0.00 | 1.15 | 1.15 | 93 | 1013.1 |
| 20260902091058 | 63 | 152 | 0.0 | 4.0 | 0.00 | 1.15 | 1.15 | 93 | 1013.0 |
| 20260902090557 | 63 | 135 | 1.0 | 5.0 | 0.00 | 1.15 | 1.15 | 93 | 1013.3 |
| 20260902090106 | 63 | 137 | 1.0 | 7.0 | 0.00 | 1.15 | 1.15 | 93 | 1013.2 |
| 20260902085556 | 63 | 153 | 2.0 | 7.0 | 0.00 | 1.15 | 1.15 | 93 | 1013.3 |
| 20260902085057 | 63 | 159 | 1.0 | 5.0 | 0.00 | 1.15 | 1.15 | 94 | 1013.4 |
| 20260902084603 | 63 | 71 | 2.0 | 5.0 | 0.00 | 1.15 | 1.15 | 94 | 1013.2 |
| 20260902084054 | 63 | 60 | 3.0 | 5.0 | 0.01 | 1.15 | 1.15 | 94 | 1013.1 |
| 20260902083556 | 63 | 56 | 1.0 | 9.0 | 0.01 | 1.15 | 1.15 | 94 | 1013.3 |
| 20260902083101 | 63 | 96 | 1.0 | 9.0 | 0.01 | 1.15 | 1.15 | 95 | 1013.0 |
| 20260902082556 | 63 | 153 | 3.0 | 13.0 | 0.02 | 1.15 | 1.15 | 95 | 1013.0 |
| 20260902082058 | 63 | 88 | 8.0 | 14.0 | 0.03 | 1.15 | 1.15 | 96 | 1012.9 |
| 20260902081614 | 63 | 51 | 6.0 | 14.0 | 0.04 | 1.15 | 1.15 | 96 | 1012.9 |
| 20260902081057 | 63 | 58 | 4.0 | 11.0 | 0.06 | 1.15 | 1.15 | 96 | 1013.1 |
| 20260902080557 | 63 | 201 | 5.0 | 16.0 | 0.06 | 1.15 | 1.15 | 95 | 1013.5 |
| 20260902080105 | 62 | 67 | 8.0 | 16.0 | 0.07 | 1.15 | 1.15 | 96 | 1012.5 |
| 20260902075556 | 62 | 129 | 4.0 | 8.0 | 0.07 | 1.15 | 1.15 | 95 | 1012.2 |
| 20260902075053 | 63 | 161 | 3.0 | 8.0 | 0.07 | 1.15 | 1.15 | 95 | 1012.0 |
| 20260902074604 | 63 | 58 | 4.0 | 10.0 | 0.08 | 1.15 | 1.15 | 95 | 1011.8 |
| 20260902074055 | 63 | 15 | 6.0 | 11.0 | 0.11 | 1.14 | 1.14 | 96 | 1012.0 |
| 20260902073556 | 63 | 39 | 5.0 | 11.0 | 0.13 | 1.14 | 1.14 | 96 | 1012.3 |
| 20260902073101 | 63 | 17 | 3.0 | 8.0 | 0.17 | 1.14 | 1.14 | 96 | 1012.4 |
| 20260902072557 | 63 | 41 | 5.0 | 8.0 | 0.24 | 1.13 | 1.13 | 96 | 1012.6 |
| 20260902072059 | 63 | 0 | 1.0 | 11.0 | 0.39 | 1.12 | 1.12 | 96 | 1013.4 |
| 20260902071607 | 63 | 288 | 6.0 | 11.0 | 0.64 | 1.10 | 1.10 | 95 | 1014.0 |
| 20260902071056 | 63 | 29 | 6.0 | 11.0 | 0.81 | 1.09 | 1.09 | 95 | 1013.9 |
| 20260902070556 | 63 | 24 | 6.0 | 10.0 | 0.91 | 1.09 | 1.09 | 96 | 1014.2 |
| 20260902070105 | 64 | 49 | 6.0 | 10.0 | 0.97 | 1.08 | 1.08 | 96 | 1014.9 |
| 20260902065558 | 64 | 41 | 6.0 | 9.0 | 1.03 | 1.08 | 1.08 | 96 | 1015.3 |
| 20260902065053 | 64 | 40 | 0.0 | 7.0 | 1.08 | 1.08 | 1.08 | 96 | 1016.1 |
| 20260902064620 | 64 | 46 | 2.0 | 5.0 | 1.07 | 1.07 | 1.07 | 95 | 1016.5 |
| 20260902064053 | 64 | 321 | 0.0 | 3.0 | 1.03 | 1.03 | 1.03 | 95 | 1018.5 |
| 20260902063556 | 65 | 287 | 1.0 | 3.0 | 1.01 | 1.01 | 1.01 | 94 | 1018.9 |
| 20260902063100 | 65 | 309 | 0.0 | 2.0 | 0.97 | 0.97 | 0.97 | 94 | 1018.2 |
| 20260902062554 | 66 | 0 | 1.0 | 15.0 | 0.89 | 0.89 | 0.89 | 94 | 1017.4 |
| 20260902062056 | 66 | 0 | 1.0 | 15.0 | 0.73 | 0.73 | 0.73 | 93 | 1016.6 |
| 20260902061606 | 68 | 297 | 8.0 | 15.0 | 0.45 | 0.45 | 0.45 | 91 | 1017.5 |
| 20260902061100 | 69 | 305 | 5.0 | 8.0 | 0.28 | 0.28 | 0.28 | 93 | 1016.7 |
| 20260902060721 | 69 | 303 | 1.0 | 6.0 | 0.18 | 0.18 | 0.18 | 93 | 1015.1 |
| 20260902060553 | 69 | 303 | 1.0 | 6.0 | 0.18 | 0.18 | 0.18 | 93 | 1015.1 |
| 20260902060126 | 70 | 19 | 1.0 | 6.0 | 0.11 | 0.11 | 0.11 | 92 | 1013.6 |
| 20260902055558 | 70 | 346 | 4.0 | 6.0 | 0.05 | 0.05 | 0.05 | 92 | 1013.3 |
| 20260902055052 | 70 | 65 | 3.0 | 5.0 | 0.00 | 0.00 | 0.00 | 92 | 1013.0 |
| 20260902054602 | 70 | 66 | 3.0 | 5.0 | 0.00 | 0.00 | 0.00 | 93 | 1012.9 |
| 20260902054053 | 69 | 70 | 3.0 | 4.0 | 0.00 | 0.00 | 0.00 | 93 | 1012.8 |
| 20260902053556 | 69 | 49 | 1.0 | 3.0 | 0.00 | 0.00 | 0.00 | 94 | 1013.1 |
| 20260902053101 | 69 | 146 | 0.0 | 3.0 | 0.00 | 0.00 | 0.00 | 94 | 1013.2 |
| 20260902052553 | 69 | 85 | 1.0 | 4.0 | 0.00 | 0.00 | 0.00 | 95 | 1012.9 |
| 20260902052056 | 69 | 77 | 2.0 | 4.0 | 0.00 | 0.00 | 0.00 | 95 | 1012.8 |
| 20260902051602 | 68 | 23 | 3.0 | 4.0 | 0.00 | 0.00 | 0.00 | 94 | 1012.9 |
| 20260902051054 | 68 | 34 | 0.0 | 0.0 | 0.00 | 0.00 | 0.00 | 95 | 1013.2 |
| 20260902050553 | 68 | 0 | 0.0 | 0.0 | 0.00 | 0.00 | 0.00 | 94 | 1013.6 |
| 20260902050117 | 68 | 0 | 0.0 | 1.0 | 0.00 | 0.00 | 0.00 | 94 | 1013.6 |
| 20260902045552 | 68 | 0 | 0.0 | 1.0 | 0.00 | 0.00 | 0.00 | 95 | 1013.9 |
| 20260902045056 | 68 | 212 | 0.0 | 1.0 | 0.00 | 0.00 | 0.00 | 95 | 1013.9 |
| 20260902044610 | 68 | 176 | 0.0 | 1.0 | 0.00 | 0.00 | 0.00 | 96 | 1013.9 |
| 20260902044058 | 68 | 0 | 0.0 | 1.0 | 0.00 | 0.00 | 0.00 | 96 | 1013.8 |
| 20260902043557 | 67 | 0 | 0.0 | 1.0 | 0.00 | 0.00 | 0.00 | 95 | 1013.4 |
| 20260902043105 | 67 | 0 | 0.0 | 1.0 | 0.00 | 0.00 | 0.00 | 95 | 1013.3 |
| 20260902042553 | 67 | 0 | 0.0 | 0.0 | 0.00 | 0.00 | 0.00 | 95 | 1013.3 |
| 20260902042056 | 67 | 0 | 0.0 | 1.0 | 0.00 | 0.00 | 0.00 | 95 | 1013.5 |
| 20260902041604 | 67 | 0 | 0.0 | 1.0 | 0.00 | 0.00 | 0.00 | 95 | 1013.5 |
| 20260902041052 | 67 | 246 | 1.0 | 1.0 | 0.00 | 0.00 | 0.00 | 95 | 1013.7 |
| 20260902040555 | 67 | 249 | 0.0 | 0.0 | 0.00 | 0.00 | 0.00 | 95 | 1013.6 |
| 20260902040113 | 67 | 0 | 0.0 | 0.0 | 0.00 | 0.00 | 0.00 | 95 | 1013.5 |
| 20260902035558 | 67 | 0 | 0.0 | 0.0 | 0.00 | 0.00 | 0.00 | 95 | 1013.7 |
| 20260902035056 | 67 | 0 | 0.0 | 0.0 | 0.00 | 0.00 | 0.00 | 95 | 1013.8 |
| 20260902034607 | 67 | 0 | 0.0 | 0.0 | 0.00 | 0.00 | 0.00 | 96 | 1013.7 |
| 20260902034056 | 66 | 0 | 0.0 | 0.0 | 0.00 | 0.00 | 0.00 | 94 | 1013.8 |
| 20260902033557 | 66 | 0 | 0.0 | 0.0 | 0.00 | 0.00 | 0.00 | 94 | 1014.0 |
| 20260902033108 | 67 | 0 | 0.0 | 0.0 | 0.00 | 0.00 | 0.00 | 94 | 1014.0 |
| 20260902032556 | 66 | 0 | 0.0 | 0.0 | 0.00 | 0.00 | 0.00 | 94 | 1013.9 |
| 20260902032056 | 66 | 0 | 0.0 | 0.0 | 0.00 | 0.00 | 0.00 | 94 | 1014.1 |
| 20260902031608 | 66 | 0 | 0.0 | 0.0 | 0.00 | 0.00 | 0.00 | 94 | 1014.2 |
| 20260902031056 | 67 | 0 | 0.0 | 0.0 | 0.00 | 0.00 | 0.00 | 94 | 1014.1 |
| 20260902030555 | 67 | 0 | 0.0 | 0.0 | 0.00 | 0.00 | 0.00 | 93 | 1014.2 |
| 20260902025555 | 67 | 0 | 0.0 | 0.0 | 0.00 | 0.00 | 0.00 | 94 | 1014.1 |
| 20260902025053 | 67 | 0 | 0.0 | 0.0 | 0.00 | 0.00 | 0.00 | 94 | 1014.2 |
| 20260902024611 | 67 | 0 | 0.0 | 0.0 | 0.00 | 0.00 | 0.00 | 94 | 1014.1 |
| 20260902024057 | 67 | 0 | 0.0 | 0.0 | 0.00 | 0.00 | 0.00 | 93 | 1014.1 |
| 20260902023553 | 67 | 0 | 0.0 | 0.0 | 0.00 | 0.00 | 0.00 | 93 | 1014.1 |
| 20260902023105 | 68 | 0 | 0.0 | 0.0 | 0.00 | 0.00 | 0.00 | 93 | 1014.0 |
| 20260902022557 | 68 | 0 | 0.0 | 0.0 | 0.00 | 0.00 | 0.00 | 93 | 1014.0 |
| 20260902022056 | 68 | 0 | 0.0 | 0.0 | 0.00 | 0.00 | 0.00 | 93 | 1014.1 |
| 20260902021604 | 68 | 0 | 0.0 | 0.0 | 0.00 | 0.00 | 0.00 | 93 | 1014.1 |
| 20260902021053 | 68 | 0 | 0.0 | 0.0 | 0.00 | 0.00 | 0.00 | 92 | 1014.2 |
| 20260902020555 | 69 | 0 | 0.0 | 0.0 | 0.00 | 0.00 | 0.00 | 92 | 1014.1 |
| 20260902020107 | 69 | 0 | 0.0 | 0.0 | 0.00 | 0.00 | 0.00 | 92 | 1014.0 |
| 20260902015552 | 69 | 0 | 0.0 | 0.0 | 0.00 | 0.00 | 0.00 | 92 | 1014.1 |
| 20260902015055 | 70 | 0 | 0.0 | 0.0 | 0.00 | 0.00 | 0.00 | 92 | 1014.1 |
| 20260902014603 | 70 | 0 | 0.0 | 0.0 | 0.00 | 0.00 | 0.00 | 92 | 1014.0 |
| 20260902014055 | 70 | 0 | 0.0 | 0.0 | 0.00 | 0.00 | 0.00 | 91 | 1013.9 |
| 20260902013556 | 70 | 0 | 0.0 | 1.0 | 0.00 | 0.00 | 0.00 | 91 | 1013.9 |
| 20260902013059 | 71 | 0 | 0.0 | 1.0 | 0.00 | 0.00 | 0.00 | 90 | 1013.8 |
| 20260902012555 | 71 | 0 | 0.0 | 0.0 | 0.00 | 0.00 | 0.00 | 89 | 1013.8 |
| 20260902012052 | 72 | 0 | 0.0 | 0.0 | 0.00 | 0.00 | 0.00 | 89 | 1013.8 |
| 20260902011603 | 72 | 0 | 0.0 | 0.0 | 0.00 | 0.00 | 0.00 | 88 | 1013.8 |
| 20260902011056 | 73 | 0 | 0.0 | 0.0 | 0.00 | 0.00 | 0.00 | 88 | 1013.8 |
| 20260902010554 | 73 | 0 | 0.0 | 0.0 | 0.00 | 0.00 | 0.00 | 88 | 1013.8 |
| 20260902010105 | 74 | 0 | 0.0 | 0.0 | 0.00 | 0.00 | 0.00 | 88 | 1013.7 |
| 20260902005556 | 74 | 0 | 0.0 | 0.0 | 0.00 | 0.00 | 0.00 | 87 | 1013.8 |
| 20260902005056 | 75 | 0 | 0.0 | 0.0 | 0.00 | 0.00 | 0.00 | 87 | 1013.8 |
| 20260902004603 | 75 | 0 | 0.0 | 0.0 | 0.00 | 0.00 | 0.00 | 86 | 1013.9 |
| 20260902004059 | 75 | 0 | 0.0 | 0.0 | 0.00 | 0.00 | 0.00 | 86 | 1014.0 |
| 20260902003557 | 76 | 0 | 0.0 | 0.0 | 0.00 | 0.00 | 0.00 | 85 | 1014.0 |
| 20260902003100 | 76 | 0 | 0.0 | 0.0 | 0.00 | 0.00 | 0.00 | 85 | 1013.9 |
| 20260902002559 | 77 | 0 | 0.0 | 0.0 | 0.00 | 0.00 | 0.00 | 83 | 1013.8 |
| 20260902002056 | 77 | 0 | 0.0 | 0.0 | 0.00 | 0.00 | 0.00 | 82 | 1013.9 |
| 20260902001603 | 78 | 0 | 0.0 | 0.0 | 0.00 | 0.00 | 0.00 | 81 | 1014.0 |
| 20260902001056 | 78 | 0 | 0.0 | 0.0 | 0.00 | 0.00 | 0.00 | 79 | 1014.1 |
| 20260902000559 | 79 | 0 | 0.0 | 0.0 | 0.00 | 0.00 | 0.00 | 79 | 1014.1 |
| 20260902000104 | 79 | 0 | 0.0 | 0.0 | 0.00 | 0.00 | 0.00 | 78 | 1014.0 |
| 20260901235556 | 79 | 0 | 0.0 | 0.0 | 0.00 | 0.00 | 0.00 | 78 | 1014.1 |
| 20260901235056 | 80 | 0 | 0.0 | 0.0 | 0.00 | 0.00 | 0.00 | 78 | 1014.0 |
| 20260901234559 | 80 | 0 | 0.0 | 0.0 | 0.00 | 0.00 | 0.00 | 78 | 1013.9 |
| 20260901234056 | 80 | 0 | 0.0 | 0.0 | 0.00 | 0.00 | 0.00 | 76 | 1013.9 |
| 20260901233556 | 80 | 0 | 0.0 | 0.0 | 0.00 | 0.00 | 0.00 | 76 | 1014.0 |
| 20260901233100 | 80 | 0 | 0.0 | 0.0 | 0.00 | 0.00 | 0.00 | 75 | 1013.9 |
| 20260901232556 | 80 | 0 | 0.0 | 0.0 | 0.00 | 0.00 | 0.00 | 76 | 1014.0 |
| 20260901232056 | 80 | 0 | 0.0 | 0.0 | 0.00 | 0.00 | 0.00 | 75 | 1014.0 |
| 20260901231605 | 81 | 0 | 0.0 | 0.0 | 0.00 | 0.00 | 0.00 | 75 | 1014.0 |
| 20260901231055 | 81 | 0 | 0.0 | 0.0 | 0.00 | 0.00 | 0.00 | 74 | 1014.0 |
| 20260901230552 | 81 | 0 | 0.0 | 0.0 | 0.00 | 0.00 | 0.00 | 74 | 1014.0 |
| 20260901230101 | 81 | 0 | 0.0 | 0.0 | 0.00 | 0.00 | 0.00 | 74 | 1013.9 |
| 20260901225554 | 81 | 0 | 0.0 | 0.0 | 0.00 | 0.00 | 0.00 | 75 | 1013.7 |
| 20260901225052 | 82 | 0 | 0.0 | 0.0 | 0.00 | 0.00 | 0.00 | 73 | 1013.7 |
| 20260901224557 | 82 | 0 | 0.0 | 0.0 | 0.00 | 0.00 | 0.00 | 72 | 1013.8 |
| 20260901224056 | 82 | 0 | 0.0 | 0.0 | 0.00 | 0.00 | 0.00 | 71 | 1013.7 |
| 20260901223554 | 82 | 0 | 0.0 | 0.0 | 0.00 | 0.00 | 0.00 | 70 | 1013.6 |
| 20260901223105 | 82 | 0 | 0.0 | 0.0 | 0.00 | 0.00 | 0.00 | 70 | 1013.7 |
| 20260901222553 | 83 | 0 | 0.0 | 0.0 | 0.00 | 0.00 | 0.00 | 69 | 1013.8 |
| 20260901222054 | 83 | 0 | 0.0 | 0.0 | 0.00 | 0.00 | 0.00 | 67 | 1013.9 |
| 20260901221607 | 83 | 0 | 0.0 | 0.0 | 0.00 | 0.00 | 0.00 | 68 | 1013.9 |
| 20260901221055 | 83 | 0 | 0.0 | 1.0 | 0.00 | 0.00 | 0.00 | 67 | 1014.1 |
| 20260901220553 | 83 | 0 | 0.0 | 2.0 | 0.00 | 0.00 | 0.00 | 68 | 1014.1 |
| 20260901220105 | 83 | 0 | 0.0 | 2.0 | 0.00 | 0.00 | 0.00 | 67 | 1014.1 |
| 20260901215552 | 83 | 0 | 0.0 | 3.0 | 0.00 | 0.00 | 0.00 | 65 | 1014.1 |
| 20260901215054 | 83 | 262 | 1.0 | 3.0 | 0.00 | 0.00 | 0.00 | 66 | 1014.1 |
| 20260901214610 | 84 | 266 | 1.0 | 5.0 | 0.00 | 0.00 | 0.00 | 67 | 1014.2 |
| 20260901214053 | 84 | 244 | 0.0 | 5.0 | 0.00 | 0.00 | 0.00 | 68 | 1014.1 |
| 20260901213553 | 84 | 177 | 2.0 | 5.0 | 0.00 | 0.00 | 0.00 | 68 | 1014.0 |
| 20260901213120 | 84 | 171 | 1.0 | 3.0 | 0.00 | 0.00 | 0.00 | 67 | 1014.0 |
| 20260901212552 | 84 | 0 | 0.0 | 1.0 | 0.00 | 0.00 | 0.00 | 67 | 1014.1 |
| 20260901212053 | 83 | 0 | 0.0 | 1.0 | 0.00 | 0.00 | 0.00 | 66 | 1014.0 |
| 20260901211604 | 83 | 0 | 0.0 | 1.0 | 0.00 | 0.00 | 0.00 | 66 | 1013.8 |
| 20260901211052 | 83 | 0 | 0.0 | 1.0 | 0.00 | 0.00 | 0.00 | 66 | 1013.9 |
| 20260901210555 | 83 | 0 | 0.0 | 1.0 | 0.00 | 0.00 | 0.00 | 67 | 1013.8 |
| 20260901205555 | 83 | 248 | 0.0 | 1.0 | 0.00 | 0.00 | 0.00 | 66 | 1014.3 |
| 20260901205059 | 83 | 269 | 1.0 | 2.0 | 0.00 | 0.00 | 0.00 | 67 | 1014.2 |
| 20260901204603 | 83 | 248 | 0.0 | 3.0 | 0.00 | 0.00 | 0.00 | 64 | 1013.9 |
| 20260901204055 | 83 | 248 | 0.0 | 4.0 | 0.00 | 0.00 | 0.00 | 65 | 1013.9 |